Regional Weather Roundup
Issued by NWS Newport/Morehead, NC

Current Version | Previous Version | Text Only | Print | Product List | Glossary On
Versions: 1 2 3 4 5 6 7 8 9 10 11 12 13 14 15 16 17 18 19 20 21 22 23 24 25 26 27 28 29 30 31 32 33 34 35 36 37 38 39 40 41 42 43 44 45 46 47 48 49 50
424
ASUS42 KMHX 221813
RWRMHX
WEATHER ROUNDUP FOR EASTERN NORTH CAROLINA
NATIONAL WEATHER SERVICE NEWPORT/MOREHEAD CITY NC
100 PM EST SUN JAN 22 2017

NOTE: "FAIR" INDICATES FEW OR NO CLOUDS BELOW 12,000 FEET
WITH NO SIGNIFICANT WEATHER AND/OR OBSTRUCTIONS TO VISIBILITY

NCZ015>017-031-032-045>047-102-103-221900-
NORTH COAST

CITY           SKY/WX    TMP DP  RH WIND       PRES   REMARKS
EDENTON        CLOUDY    58  56  91 NE7       29.52F
ELIZABETH CITY CLOUDY    55  54  96 N3        29.54F FOG
KITTY HAWK     NOT AVBL
MANTEO         CLOUDY    57  57 100 CALM      29.55F

$$

NCZ045>047-081-094-103-104-221900-
CENTRAL COAST

CITY           SKY/WX    TMP DP  RH WIND       PRES   REMARKS
FRISCO         RAIN      58  57  97 SW5       29.56F VSB 3/4

$$

NCZ095-097-098-100-101-221900-
SOUTHERN COAST

CITY           SKY/WX    TMP DP  RH WIND       PRES   REMARKS
BEAUFORT       CLOUDY    61  60  97 S10       29.58R
CEDAR ISLAND   NOT AVBL
JACKSONVILLE   NOT AVBL
PINEY ISLAND   CLOUDY   N/A N/A N/A SE7       29.52
WILMINGTON     CLOUDY    61  60  97 VRB5      29.56F


$$

NCZ011>013-027>030-043-044-078>080-089-090>093-098-221900-
COASTAL PLAIN

CITY           SKY/WX    TMP DP  RH WIND       PRES   REMARKS
AHOSKIE          N/A     52  52  99 CALM      29.56R FOG
CLINTON        PTSUNNY   64  60  88 SW6       29.56F
ELIZABETHTOWN  CLOUDY    62  60  95 CALM      29.55F
GOLDSBORO      CLOUDY    59  59 100 N3        29.53F
GREENVILLE     CLOUDY    57  57 100 CALM      29.59F FOG
HAVELOCK       CLOUDY    62  60  93 S7        29.56F
KENANSVILLE    CLOUDY    63  59  88 SW3       29.56F
KINSTON        CLOUDY    63  59  88 NW6       29.55S
NEW BERN       PTSUNNY   62  59  90 S5        29.56R
RICHLANDS      CLOUDY    61  59  93 S7        29.54S
ROCKY MOUNT    CLOUDY    54  54 100 CALM      29.57F
WASHINGTON     CLOUDY    61  57  88 CALM        N/A
WHITEVILLE     CLOUDY    63  60  90 S7        29.55F

$$

AMZ130-135-150-152-154-156-158-170-250-252-270-ANZ085-086-088-633-658-670-221900-
MARINE OBSERVATIONS

STATION/POSITION TIME  TEMP    WIND        PRES    WAVE   SWELL
                       AIR SEA DIR/SP/G            HT/PER HT/PER
                 (UTC) (F)     (DEG/KT/KT) (MB)    (FT/S) (FT/S)
CHESAPEAKE LIGHT NOT AVBL
64 E VA BEACH    1750   51 57  260/ 10/ 14 1000.7    5/ 7   5/ 7
DUCK             1748   53 46  280/  3/  4 1000.3
2 E DUCK         1730      47                N/A     3/13   2/13
OREGON INLET     1742   51 50  190/  3/  5 1001.4
13E OREGON INLT  NOT AVBL
HATTERAS CG      1748   58 54  200/  3/  5 1000.7
DIAMOND BUOY     1750   64 72  220/ 10/ 14 1002.5    4/11   3/11
CAPE LOOKOUT     1700   58      CALM  /  2 1002.1
BEAUFORT LAB     1748   58 52  170/  8/ 11  999.5
30 SE NEW RVR IN 1708   58 64  150/  8/ 12 1002.0
30 SE NEW RVR IN 1743      64                N/A     3/ 7   2/12
27 SE WRIGHTSVLE 1708   62 67  160/ 12/ 16 1001.2
5 SE WRIGHTSVLE  1708   56     240/  4/  8 1002.7
225 S CAPE HAT   1650   73 71  200/ 19/ 23 1006.4    8/ 7   3/13
41 SE CHARLESTON 1650   66 68  230/  8/ 10 1003.3    5/ 6   5/ 6

$$




USA.gov is the U.S. government's official web portal to all federal, state and local government web resources and services.